Tracking 28790 objects as of 19-Apr-2024
HD Live streaming from Space Station
objects crossing your sky now

PEGASUS R/B

Track PEGASUS R/B now!
10-day predictions


NORAD ID: 25506
Int'l Code: 1998-060B
Perigee: 726.4 km
Apogee: 759.0 km
Inclination: 25.0 °
Period: 99.5 minutes
Semi major axis: 7113 km
RCS: 1.6048 m2 (large)
Launch date: October 23, 1998
Source: United States (US)
Launch site: Pegasus launched from Eastern Range Air Space (ERAS)

Note: This is a ROCKET BODY
Your satellite tracking list
Your tracking list is empty




NASA's NSSDC Master Catalog

Two Line Element Set (TLE):
1 25506U 98060B   24110.19275742  .00001445  00000-0  34072-3 0  9999
2 25506  24.9967  77.7771 0022886   6.8239 103.9091 14.46962078348226
Source of the keplerian elements: AFSPC